Weather in Torre贸n

Mexico     25掳32鈥15鈥砃   103掳26鈥10鈥砏
temp.,
掳C
wind,
m/s
gust,
m/s
humid.,
%
clouds,
%
prec.,
mm/h
press.,
hPa
HPBL,
m
26 september, sun
sun2601:00+20n3355100 0.0 101735
04:00+20nnw2257100 0.0 1016129
07:00+18n116790 0.0 101711
10:00+21n0056100 0.0 1018437
13:00+26e1138100 0.0 10151207
16:00+30e2230100 0.0 10111749
19:00+29ene4432100 0.0 10101218
22:00+24ne2244100 0.0 101211
27 september, mon
mon2701:00+24nnw2250100 0.0 101320
04:00+21nnw336579 0.3 101461
07:00+20nw117370 1.6 101419
10:00+22ne126258 0.1 1016418
13:00+27nne22475 0.1 10141182
16:00+30nne22366 0.0 10101720
19:00+29nne433595 0.0 10091251
22:00+21ssw347337 3.1 1013125
28 september, tue
tue2801:00+21ssw22712 3.3 101340
04:00+20ssw22695 0.0 101213
07:00+19wsw22675 0.1 101311
10:00+23s11501 0.0 1014347
13:00+28e01350 0.0 10111522
16:00+31ne12273 0.0 10072516
19:00+30n53284 0.0 10061064
22:00+26nw0036100 0.0 100814
29 september, wed
wed2901:00+25sw11386 0.0 100811
04:00+25n5938100 0.0 1009325
07:00+23wnw113711 0.0 101016
10:00+26nw23305 0.0 1012824
13:00+29nnw22243 0.0 10101848
16:00+32n34212 0.0 10073118
19:00+30n662310 0.0 1007989
22:00+26nnw22280 0.0 100812
30 september, thu
thu3001:00+24nne22325 0.0 101012
04:00+21nnw33577 0.0 101033
07:00+21n226459 0.0 101071
10:00+23n225677 0.0 1012347
13:00+29ne22355 0.0 10101515
16:00+32ene332556 0.0 10063104
19:00+24sse8115256 0.2 1008381
22:00+24e2450100 0.1 1010288